Regional Weather Roundup
Issued by NWS Sioux Falls, SD

Home | Current Version | Previous Version | Graphics & Text | Print | Product List | Glossary On
Versions: 1 2 3 4 5 6 7 8 9 10 11 12 13 14 15 16 17 18 19 20 21 22 23 24 25 26 27 28 29 30 31 32 33 34 35 36 37 38 39 40 41 42 43 44 45 46 47 48 49 50
000
ASUS43 KFSD 271510
RWRFSD

WEATHER ROUNDUP FOR SE SOUTH DAKOTA/SW MINNESOTA/NW IOWA
NATIONAL WEATHER SERVICE SIOUX FALLS SD
1000 AM CDT MON MAR 27 2017

NOTE: "FAIR" INDICATES FEW OR NO CLOUDS BELOW 12,000 FEET WITH NO
SIGNIFICANT WEATHER AND OR OBSTRUCTIONS TO VISIBILITY.


SDZ038>040-050-052>070-271600-
SOUTHEAST SOUTH DAKOTA

CITY           SKY/WX    TMP DP  RH WIND       PRES   REMARKS
BROOKINGS      MOSUNNY   39  37  93 W3        29.97R
CHAMBERLAIN    CLOUDY    41  41 100 CALM      29.96S
HURON          CLOUDY    44  41  89 S6        29.98R
MADISON        CLOUDY    39  39 100 CALM      29.97R
MITCHELL       CLOUDY    41  40  96 SW3       29.99S
SIOUX FALLS    CLOUDY    46  39  76 CALM      29.97F
WINNER         FAIR      43  40  89 SW3       29.95S
YANKTON        CLOUDY    45  39  81 CALM      29.98S
$$

MNZ071-072-080-081-089-090-097-098-271600-
SOUTHWEST MINNESOTA

CITY           SKY/WX    TMP DP  RH WIND       PRES   REMARKS
FAIRMONT       CLOUDY    41  37  86 NE8       29.97R
JACKSON        CLOUDY    41  37  87 N6        29.97R
LUVERNE        CLOUDY    41  36  81 CALM      29.98S
MARSHALL       CLOUDY    42  39  89 CALM      29.98S
MONTEVIDEO     CLOUDY    48  43  81 CALM      30.00R
PIPESTONE      CLOUDY    43  36  75 CALM      29.96S
REDWOOD FALLS  CLOUDY    43  37  79 CALM      29.98R
TRACY          CLOUDY    43  39  86 CALM      29.98S
WINDOM         PTSUNNY   43  39  87 NW5       29.97R
WORTHINGTON    CLOUDY    41  37  86 N7        29.98R
$$

IAZ001>003-012>014-020>022-031-032-NEZ013-014-SDZ071-271600-
NORTHWEST IOWA

CITY           SKY/WX    TMP DP  RH WIND       PRES   REMARKS
CHEROKEE       CLOUDY    44  41  88 N5        29.98R
ESTHERVILLE    CLOUDY    41  38  89 NE9       29.96R
LE MARS        MOSUNNY   46  39  76 N7        29.99R
ORANGE CITY    CLOUDY    45  39  81 NE5       29.98R
SHELDON        CLOUDY    43  43 100 N6        29.96S
SIOUX CITY     CLOUDY    46  40  79 NE5       29.98S
SPENCER        CLOUDY    43  39  86 N7        29.97R
STORM LAKE     MOSUNNY   45  41  87 N12       29.96R
$$

ABBREVIATIONS USED IN REMARKS
   TC - TEMPERATURE IN CELSIUS
  WCI - WIND CHILL INDEX
   HX - HEAT INDEX
  VSB - VISIBILITY





USA.gov is the U.S. government's official web portal to all federal, state and local government web resources and services.